Location: Unspecified
(35.7250°N, 0.0000°E)
Time: 23:00:52
(UTC+00:00)

Vanguard 1 - Visible Passes

Search period start: 18 June 2019 00:00
Search period end: 28 June 2019 00:00
Orbit: 654 x 3829 km, 34.2° (Epoch: 17 June)

Date Brightness Start Highest point End Pass type
(mag) Time Alt. Az. Time Alt. Az. Time Alt. Az.
18 Jun 12.4 02:10:47 28° SSW 02:18:33 41° SSE 02:28:46 10° E visible
19 Jun 13.2 00:17:14 23° SE 00:17:14 23° SE 00:26:45 10° E visible
19 Jun 12.1 02:29:52 27° SSW 02:39:53 50° SSE 02:50:04 10° E visible
20 Jun 12.9 00:36:14 30° SSE 00:37:13 30° SSE 00:49:11 10° E visible
20 Jun 12.0 02:48:53 22° SW 03:01:14 59° SSE 03:11:13 10° E visible
21 Jun 12.7 00:55:08 36° SSE 00:58:36 38° SSE 01:11:02 10° E visible
21 Jun 11.8 03:07:46 17° WSW 03:22:33 68° SSE 03:32:17 10° E visible
21 Jun 13.5 23:01:17 17° ESE 23:01:17 17° ESE 23:06:50 10° ESE visible
22 Jun 12.5 01:13:54 38° S 01:19:59 47° SSE 01:32:33 10° E visible
22 Jun 11.7 03:26:31 11° WSW 03:43:52 75° SSE 03:53:19 10° E visible
22 Jun 13.2 23:19:55 26° SE 23:19:55 26° SE 23:30:04 10° E visible
23 Jun 12.3 01:32:31 36° SSW 01:41:22 55° SSE 01:53:53 10° E visible
23 Jun 11.7 03:47:39 10° WSW 04:05:11 80° S 04:14:18 10° E visible
23 Jun 13.0 23:38:21 34° SE 23:38:21 34° SE 23:52:25 10° E visible
24 Jun 12.2 01:50:56 30° SW 02:02:47 64° SSE 02:15:04 10° E visible
24 Jun 11.6 04:09:30 10° W 04:26:31 84° S 04:35:17 10° E visible
24 Jun 13.8 21:44:00 11° ESE 21:44:00 11° ESE 21:44:33 10° ESE visible
24 Jun 12.8 23:56:33 41° SSE 23:59:19 42° SSE 00:14:16 10° E visible
25 Jun 12.1 02:09:06 23° WSW 02:24:11 71° SSE 02:36:10 10° E visible
25 Jun 13.5 22:01:52 19° ESE 22:01:52 19° ESE 22:09:25 10° E visible
26 Jun 12.6 00:14:22 43° S 00:20:40 51° SSE 00:35:49 10° E visible
26 Jun 12.0 02:26:52 14° WSW 02:45:38 78° SSE 02:57:15 10° E visible
26 Jun 13.2 21:59:00 10° S 22:19:09 29° SE 22:32:34 10° E visible
27 Jun 12.5 00:31:35 37° SSW 00:42:05 59° SSE 00:57:10 10° E visible
27 Jun 12.0 02:46:29 10° WSW 03:07:04 82° S 03:18:19 10° E visible
27 Jun 13.0 22:18:16 10° SSW 22:38:08 37° SE 22:54:54 10° E visible
